Total_Precipitation_Accumulation
0.36 0.31 0.42 0.49 0.47 0.48 0.64 0.63 0.51 0.31 0.23 0.25 0.24 0.23 0.22 0.19 0.15 0.12 0.11 0.09 0.09 0.11 0.14 0.15 0.15 0.15 0.19 0.27 0.34 0.53 0.76 0.94 0.96 0.92 0.98 1.04 1.04 1.12 1.18 1.22 1.29 1.42 1.53 1.65
0.29 0.20 0.27 0.34 0.30 0.34 0.38 0.39 0.35 0.26 0.30 0.26 0.24 0.21 0.21 0.20 0.17 0.15 0.14 0.12 0.10 0.10 0.14 0.16 0.16 0.16 0.19 0.23 0.29 0.42 0.61 0.80 0.91 0.90 0.94 1.01 1.00 1.07 1.15 1.22 1.27 1.39 1.45 1.47
0.46 0.21 0.42 0.59 0.41 0.38 0.38 0.38 0.37 0.37 0.36 0.28 0.26 0.24 0.24 0.22 0.20 0.21 0.20 0.16 0.14 0.13 0.15 0.16 0.16 0.17 0.20 0.22 0.24 0.33 0.48 0.65 0.79 0.82 0.82 0.88 0.91 1.01 1.11 1.20 1.20 1.25 1.29 1.27
0.73 0.55 0.91 0.65 0.33 0.33 0.40 0.44 0.41 0.38 0.34 0.31 0.29 0.29 0.26 0.23 0.23 0.24 0.22 0.20 0.18 0.18 0.18 0.17 0.15 0.16 0.17 0.20 0.22 0.27 0.38 0.54 0.72 0.77 0.76 0.76 0.81 0.87 0.97 1.09 1.15 1.12 1.12 1.11
1.09 0.81 0.56 0.34 0.22 0.33 0.44 0.50 0.42 0.32 0.26 0.25 0.25 0.24 0.25 0.22 0.18 0.18 0.20 0.20 0.19 0.21 0.22 0.21 0.18 0.18 0.19 0.21 0.22 0.26 0.38 0.50 0.63 0.74 0.73 0.70 0.75 0.79 0.84 0.91 1.01 1.00 0.99 1.05
1.30 0.98 0.59 0.38 0.18 0.21 0.38 0.56 0.34 0.26 0.23 0.23 0.26 0.32 0.29 0.20 0.14 0.11 0.12 0.14 0.15 0.17 0.18 0.20 0.21 0.21 0.22 0.25 0.26 0.29 0.42 0.52 0.57 0.66 0.69 0.66 0.71 0.78 0.79 0.81 0.86 0.89 0.86 0.91
1.10 0.89 0.44 0.25 0.15 0.20 0.50 0.61 0.30 0.23 0.21 0.22 0.29 0.33 0.24 0.15 0.13 0.10 0.10 0.11 0.12 0.14 0.16 0.19 0.21 0.22 0.23 0.27 0.31 0.33 0.42 0.48 0.53 0.58 0.62 0.61 0.68 0.71 0.76 0.79 0.80 0.82 0.78 0.81
0.89 0.98 0.54 0.22 0.22 0.45 0.54 0.27 0.20 0.18 0.17 0.19 0.20 0.17 0.14 0.13 0.12 0.11 0.10 0.09 0.10 0.12 0.14 0.16 0.18 0.20 0.22 0.27 0.34 0.38 0.41 0.43 0.50 0.56 0.59 0.59 0.69 0.69 0.70 0.76 0.80 0.80 0.79 0.82
0.73 0.64 0.42 0.30 0.35 0.36 0.29 0.23 0.17 0.16 0.16 0.17 0.18 0.16 0.16 0.15 0.13 0.12 0.11 0.09 0.10 0.12 0.13 0.14 0.17 0.19 0.21 0.26 0.33 0.42 0.43 0.44 0.49 0.58 0.64 0.66 0.72 0.73 0.73 0.73 0.77 0.80 0.80 0.78
0.47 0.36 0.30 0.28 0.25 0.21 0.17 0.17 0.16 0.16 0.17 0.19 0.19 0.17 0.18 0.17 0.16 0.15 0.14 0.12 0.11 0.13 0.15 0.18 0.20 0.21 0.24 0.27 0.34 0.44 0.45 0.46 0.50 0.56 0.65 0.67 0.71 0.73 0.75 0.78 0.86 0.89 0.85 0.79
0.39 0.29 0.23 0.19 0.19 0.19 0.16 0.14 0.13 0.14 0.15 0.17 0.18 0.18 0.18 0.19 0.19 0.19 0.17 0.14 0.13 0.13 0.16 0.20 0.23 0.24 0.23 0.27 0.35 0.44 0.48 0.48 0.50 0.53 0.65 0.68 0.71 0.74 0.77 0.76 0.94 1.07 0.96 0.94
0.34 0.26 0.29 0.24 0.19 0.19 0.19 0.16 0.15 0.16 0.16 0.16 0.17 0.18 0.19 0.22 0.22 0.21 0.19 0.16 0.15 0.14 0.16 0.20 0.24 0.26 0.26 0.28 0.35 0.44 0.51 0.53 0.52 0.54 0.65 0.68 0.71 0.76 0.80 0.81 0.85 0.86 0.89 0.97
0.25 0.18 0.20 0.21 0.20 0.18 0.19 0.19 0.19 0.20 0.20 0.20 0.18 0.18 0.20 0.22 0.22 0.22 0.20 0.19 0.18 0.19 0.19 0.22 0.26 0.28 0.30 0.31 0.34 0.42 0.52 0.55 0.55 0.55 0.64 0.69 0.65 0.70 0.73 0.74 0.77 0.80 0.81 0.85
0.20 0.20 0.20 0.19 0.21 0.20 0.18 0.18 0.19 0.19 0.18 0.19 0.19 0.20 0.21 0.22 0.22 0.21 0.20 0.21 0.19 0.19 0.20 0.23 0.25 0.28 0.33 0.33 0.32 0.39 0.48 0.54 0.56 0.58 0.63 0.67 0.65 0.65 0.64 0.70 0.75 0.79 0.83 0.87
0.18 0.20 0.21 0.19 0.19 0.17 0.16 0.15 0.16 0.18 0.18 0.18 0.17 0.18 0.20 0.20 0.20 0.19 0.19 0.20 0.19 0.19 0.19 0.20 0.23 0.27 0.31 0.31 0.33 0.40 0.51 0.57 0.59 0.63 0.66 0.67 0.65 0.65 0.63 0.64 0.68 0.73 0.81 0.95
0.18 0.15 0.15 0.16 0.17 0.17 0.16 0.16 0.18 0.21 0.21 0.21 0.20 0.22 0.23 0.20 0.18 0.17 0.17 0.17 0.19 0.20 0.21 0.21 0.24 0.29 0.32 0.31 0.32 0.39 0.50 0.66 0.71 0.72 0.72 0.70 0.68 0.66 0.66 0.66 0.68 0.72 0.80 0.93
0.23 0.17 0.16 0.16 0.17 0.18 0.19 0.20 0.21 0.24 0.24 0.25 0.27 0.27 0.25 0.21 0.18 0.18 0.19 0.19 0.20 0.22 0.23 0.24 0.27 0.30 0.33 0.33 0.37 0.43 0.53 0.63 0.74 0.76 0.76 0.76 0.75 0.71 0.70 0.72 0.73 0.74 0.79 0.93
0.25 0.22 0.21 0.23 0.23 0.22 0.21 0.20 0.21 0.23 0.25 0.26 0.27 0.27 0.27 0.24 0.22 0.22 0.22 0.21 0.21 0.21 0.24 0.27 0.31 0.32 0.33 0.35 0.42 0.48 0.58 0.68 0.75 0.84 0.86 0.87 0.86 0.79 0.78 0.78 0.75 0.77 0.79 0.89
0.21 0.22 0.21 0.22 0.23 0.23 0.24 0.25 0.24 0.23 0.22 0.22 0.23 0.24 0.25 0.25 0.24 0.23 0.23 0.22 0.23 0.27 0.30 0.32 0.34 0.32 0.33 0.40 0.51 0.56 0.65 0.74 0.81 0.87 0.90 0.96 0.94 0.86 0.83 0.81 0.80 0.81 0.84 0.90
0.23 0.23 0.23 0.22 0.20 0.22 0.23 0.25 0.25 0.22 0.21 0.22 0.22 0.22 0.23 0.25 0.26 0.26 0.26 0.26 0.30 0.36 0.38 0.39 0.37 0.37 0.43 0.51 0.62 0.65 0.70 0.79 0.87 0.92 0.95 0.96 0.98 0.98 0.94 0.89 0.88 0.88 0.90 0.93
0.26 0.25 0.24 0.22 0.20 0.21 0.23 0.25 0.27 0.25 0.23 0.24 0.26 0.26 0.27 0.27 0.28 0.28 0.29 0.32 0.35 0.38 0.40 0.41 0.40 0.48 0.60 0.69 0.68 0.67 0.73 0.84 0.91 0.94 0.97 1.00 1.02 1.01 0.99 0.96 0.93 0.93 0.94 0.93
0.31 0.29 0.27 0.26 0.26 0.27 0.28 0.29 0.30 0.30 0.28 0.28 0.29 0.29 0.30 0.31 0.30 0.30 0.34 0.42 0.46 0.46 0.43 0.43 0.48 0.60 0.71 0.73 0.68 0.70 0.78 0.89 0.96 0.96 0.99 1.01 1.06 1.09 1.04 1.02 1.00 0.97 0.97 0.96
0.38 0.37 0.36 0.37 0.38 0.38 0.35 0.35 0.37 0.37 0.38 0.38 0.37 0.36 0.37 0.38 0.36 0.36 0.43 0.47 0.48 0.49 0.49 0.54 0.61 0.66 0.70 0.70 0.72 0.76 0.86 0.99 1.05 1.04 1.04 1.05 1.09 1.14 1.15 1.10 1.04 1.02 1.05 1.03
0.47 0.45 0.46 0.47 0.46 0.43 0.44 0.47 0.47 0.46 0.47 0.48 0.48 0.47 0.45 0.43 0.42 0.45 0.52 0.54 0.53 0.53 0.56 0.62 0.63 0.65 0.68 0.69 0.75 0.85 0.98 1.07 1.12 1.12 1.11 1.10 1.12 1.17 1.18 1.15 1.10 1.04 1.02 1.01
0.53 0.52 0.52 0.52 0.55 0.58 0.58 0.54 0.51 0.49 0.48 0.50 0.51 0.50 0.50 0.50 0.54 0.57 0.57 0.56 0.55 0.55 0.56 0.59 0.60 0.62 0.64 0.70 0.80 0.95 1.06 1.13 1.21 1.23 1.21 1.19 1.17 1.18 1.18 1.14 1.09 1.02 0.97 0.96
0.57 0.58 0.60 0.63 0.67 0.68 0.64 0.58 0.55 0.54 0.51 0.49 0.50 0.51 0.52 0.53 0.56 0.58 0.58 0.57 0.56 0.58 0.60 0.60 0.60 0.64 0.71 0.78 0.87 0.99 1.07 1.14 1.22 1.24 1.20 1.18 1.16 1.17 1.18 1.14 1.04 0.96 0.90 0.89
0.59 0.59 0.58 0.58 0.62 0.64 0.63 0.61 0.60 0.59 0.54 0.51 0.51 0.51 0.53 0.53 0.54 0.56 0.56 0.56 0.57 0.58 0.60 0.63 0.65 0.71 0.77 0.85 0.93 1.00 1.07 1.13 1.23 1.29 1.25 1.21 1.20 1.20 1.18 1.10 0.99 0.90 0.84 0.84